Jordan, MT

2:05 AM MST on November 18, 2019 (GMT -0700)
Jordan

Weather History for KJDN - October, 2019

Change the Weather History Date:

Tuesday, October 22, 2019

  Actual Average Record
Temperature  
Mean Temperature 41 °F 42 °F  
Max Temperature 54 °F 56 °F 81 °F (1992)
Min Temperature 28 °F 27 °F 3 °F (2002)
Degree Days  
Heating Degree Days 24 23  
Month to date heating degree days 513 418  
Since 1 July heating degree days 764 744  
Cooling Degree Days 0 0  
Month to date cooling degree days 0 0  
Year to date cooling degree days 483 420  
Moisture  
Dew Point 32 °F    
Average Humidity 70    
Maximum Humidity 85    
Minimum Humidity 54    
Precipitation  
Precipitation 0.01 in 0.02 in 1.29 in (1953)
Month to date precipitation 1.04 0.66  
Year to date precipitation 18.01 11.79  
Snow  
Snow 0.00 in - - ()
Month to date snowfall 0.0  
Since 1 July snowfall 0.0  
Since 1 September snowfall 0.0  
Snow Depth 0.00 in    
Sea Level Pressure  
Sea Level Pressure 29.89 in    
Wind  
Wind Speed 10 mph (West)    
Max Wind Speed 38 mph    
Max Gust Speed 45 mph    
T = Trace of Precipitation, MM = Missing Value Source: NWS Daily Summary

Daily Weather History Graph

Daily Weather History Graph

Search for Another Location

Airport or City:

Astronomy

Oct. 22, 2019 Rise Set
Actual Time 7:36 AM MDT 6:07 PM MDT
Civil Twilight 7:04 AM MDT 6:38 PM MDT
Nautical Twilight 6:29 AM MDT 7:14 PM MDT
Astronomical Twilight 5:53 AM MDT 7:49 PM MDT
Moon 12:15 AM MDT (10/22) 3:50 PM MDT (10/22)
Length of Visible Light 11h 34m
Length of Day
10h 31m
Last Quarter, 36% of the Moon is Illuminated
Oct 22
Last Quarter
Oct 27
New
Nov 4
First Quarter
Nov 12
Full
Nov 19
Last Quarter

Hourly Weather History & Observations

Time (MDT) Temp. Windchill Dew Point Humidity Pressure Visibility Wind Dir Wind Speed Gust Speed Precip Events Conditions
12:48 AM 39.9 °F 35.1 °F 30.0 °F 68% 30.05 in - West 6.9 mph - N/A   Unknown
1:48 AM 39.9 °F 35.1 °F 30.0 °F 68% 30.04 in - West 6.9 mph - N/A   Unknown
2:48 AM 33.1 °F 28.7 °F 27.0 °F 78% 30.06 in - WNW 4.6 mph - N/A   Unknown
3:48 AM 33.1 °F 26.9 °F 26.1 °F 75% 30.05 in - WNW 6.9 mph - N/A   Unknown
4:48 AM 30.0 °F 23.2 °F 25.0 °F 82% 30.04 in - WNW 6.9 mph - N/A   Unknown
5:48 AM 28.9 °F 21.1 °F 25.0 °F 85% 30.04 in - West 8.1 mph - N/A   Unknown
6:48 AM 28.9 °F 21.1 °F 25.0 °F 85% 30.04 in - WNW 8.1 mph - N/A   Unknown
7:48 AM 30.9 °F 23.5 °F 26.1 °F 82% 30.02 in - West 8.1 mph - N/A   Unknown
8:48 AM 35.1 °F 31.0 °F 28.9 °F 78% 29.99 in - WNW 4.6 mph - N/A   Unknown
9:48 AM 37.9 °F 35.5 °F 30.9 °F 76% 29.97 in - WNW 3.5 mph - N/A   Unknown
10:48 AM 42.1 °F - 34.0 °F 73% 29.93 in - Calm Calm - N/A   Unknown
11:48 AM 46.0 °F 42.5 °F 32.0 °F 58% 29.89 in - South 6.9 mph - N/A   Unknown
12:48 PM 48.0 °F - 32.0 °F 54% 29.84 in - SSE 5.8 mph - N/A   Unknown
1:48 PM 48.9 °F - 33.1 °F 54% 29.79 in - SE 8.1 mph - N/A   Unknown
2:48 PM 48.9 °F - 35.1 °F 59% 29.78 in - SE 6.9 mph - N/A   Unknown
3:48 PM 52.0 °F - 35.1 °F 53% 29.74 in - SE 10.4 mph - N/A   Unknown
4:48 PM 52.0 °F - 36.0 °F 54% 29.70 in - East 4.6 mph - N/A   Unknown
5:34 PM 46.9 °F - 39.9 °F 77% 29.70 in - NW 18.4 mph 36.8 mph 0.01 in   Unknown
5:48 PM 46.9 °F - 41.0 °F 80% 29.76 in - NW 10.4 mph - 0.01 in   Unknown
6:48 PM 46.9 °F - 39.0 °F 74% 29.76 in - West 10.4 mph - N/A   Unknown
7:48 PM 45.0 °F 38.2 °F 37.0 °F 74% 29.75 in - West 15.0 mph - N/A   Unknown
8:48 PM 43.0 °F 37.7 °F 35.1 °F 74% 29.78 in - WNW 9.2 mph - N/A   Unknown
9:48 PM 41.0 °F 34.3 °F 35.1 °F 79% 29.78 in - West 11.5 mph - N/A   Unknown
10:48 PM 46.0 °F 36.9 °F 34.0 °F 63% 29.79 in - NW 28.8 mph 39.1 mph N/A   Unknown